Radiation Dose at Monitoring Post of Fukushima Daini Nuclear Power Station
Date,Time,MP-1(microSv/h),MP-2(microSv/h),MP-3(microSv/h),MP-4(microSv/h),MP-5(microSv/h),MP-6(microSv/h),MP-7(microSv/h),Wind Direction,Wind Velocity(m/s),Rain
2023/07/25,00:00,0.149,0.137,0.217,0.205,0.212,0.119,0.077,south-southwest,2.1,No
2023/07/25,00:10,0.147,0.137,0.216,0.208,0.209,0.119,0.076,south-southwest,2.6,No
2023/07/25,00:20,0.148,0.137,0.214,0.207,0.213,0.117,0.076,south-southwest,2.2,No
2023/07/25,00:30,0.150,0.138,0.216,0.204,0.213,0.119,0.077,south-southwest,2.2,No
2023/07/25,00:40,0.149,0.137,0.216,0.205,0.211,0.119,0.077,south-southwest,2.7,No
2023/07/25,00:50,0.147,0.137,0.215,0.206,0.208,0.118,0.076,south-southwest,3.2,No
2023/07/25,01:00,0.150,0.136,0.214,0.206,0.213,0.118,0.076,south-southwest,3.9,No
2023/07/25,01:10,0.149,0.137,0.218,0.204,0.212,0.118,0.077,south,4.5,No
2023/07/25,01:20,0.148,0.135,0.216,0.206,0.211,0.118,0.076,south,2.9,No
2023/07/25,01:30,0.148,0.137,0.214,0.207,0.210,0.117,0.076,south-southwest,3.4,No
2023/07/25,01:40,0.149,0.137,0.216,0.205,0.213,0.118,0.077,southwest,3.7,Yes
2023/07/25,01:50,0.148,0.137,0.216,0.204,0.213,0.119,0.077,southwest,3.3,No
2023/07/25,02:00,0.147,0.137,0.215,0.207,0.211,0.118,0.076,southwest,4.4,No
2023/07/25,02:10,0.149,0.137,0.215,0.206,0.210,0.119,0.076,southwest,4.3,No
2023/07/25,02:20,0.149,0.136,0.217,0.204,0.213,0.118,0.077,southwest,3.5,No
2023/07/25,02:30,-,-,-,-,-,-,-,-,-,-
2023/07/25,02:40,0.149,0.137,0.216,0.207,0.211,0.118,0.076,south-southwest,2.6,No
2023/07/25,02:50,0.150,0.138,0.218,0.205,0.210,0.119,0.076,south-southwest,2.9,No
2023/07/25,03:00,-,-,-,-,-,-,-,-,-,-
2023/07/25,03:10,0.149,0.136,0.215,0.208,0.212,0.118,0.077,southwest,1.0,No
2023/07/25,03:20,0.150,0.136,0.217,0.206,0.210,0.119,0.077,southwest,1.3,No
2023/07/25,03:30,0.148,0.138,0.216,0.206,0.213,0.119,0.076,south-southwest,0.8,No
2023/07/25,03:40,0.149,0.137,0.217,0.208,0.214,0.119,0.077,-,CALM,No
2023/07/25,03:50,0.150,0.137,0.216,0.206,0.211,0.119,0.077,west,0.7,No
2023/07/25,04:00,0.149,0.138,0.216,0.207,0.214,0.118,0.077,west,0.8,No
2023/07/25,04:10,0.149,0.137,0.217,0.208,0.213,0.119,0.077,-,CALM,No
2023/07/25,04:20,0.150,0.138,0.217,0.206,0.211,0.120,0.077,-,CALM,No
2023/07/25,04:30,0.149,0.138,0.215,0.207,0.214,0.119,0.077,-,CALM,No
2023/07/25,04:40,0.150,0.138,0.218,0.207,0.212,0.119,0.078,south-southwest,1.0,No
2023/07/25,04:50,0.150,0.138,0.215,0.205,0.211,0.118,0.077,southwest,1.1,No
2023/07/25,05:00,0.149,0.137,0.218,0.208,0.214,0.118,0.077,north-northeast,0.8,No
2023/07/25,05:10,0.151,0.138,0.217,0.207,0.213,0.119,0.077,north,2.2,No
2023/07/25,05:20,0.151,0.138,0.216,0.207,0.211,0.119,0.078,north,2.4,No
2023/07/25,05:30,0.150,0.137,0.219,0.208,0.214,0.119,0.077,north-northeast,2.6,No
2023/07/25,05:40,0.150,0.139,0.217,0.206,0.213,0.119,0.078,north-northeast,1.0,No
2023/07/25,05:50,0.150,0.138,0.216,0.207,0.211,0.120,0.077,north-northeast,1.2,No
2023/07/25,06:00,0.148,0.137,0.217,0.207,0.216,0.119,0.077,north-northeast,1.1,No
2023/07/25,06:10,0.151,0.138,0.216,0.206,0.212,0.119,0.077,north,1.4,No
2023/07/25,06:20,0.151,0.138,0.217,0.208,0.211,0.120,0.077,north,0.8,No
2023/07/25,06:30,0.149,0.136,0.217,0.207,0.209,0.120,0.078,-,CALM,No
2023/07/25,06:40,0.147,0.136,0.215,0.205,0.213,0.119,0.077,north,0.6,No
2023/07/25,06:50,0.150,0.136,0.213,0.204,0.212,0.119,0.077,-,CALM,No
2023/07/25,07:00,0.150,0.136,0.217,0.205,0.212,0.119,0.077,north-northwest,0.9,No
2023/07/25,07:10,0.150,0.136,0.216,0.206,0.211,0.119,0.077,northwest,0.7,No
2023/07/25,07:20,0.149,0.137,0.216,0.207,0.210,0.119,0.076,-,CALM,No
2023/07/25,07:30,0.149,0.138,0.215,0.207,0.210,0.120,0.078,north,1.3,No
2023/07/25,07:40,0.149,0.139,0.216,0.207,0.210,0.120,0.077,north-northeast,1.7,No
2023/07/25,07:50,0.149,0.137,0.215,0.205,0.211,0.118,0.077,north-northeast,1.7,No
2023/07/25,08:00,0.148,0.137,0.217,0.205,0.209,0.119,0.077,north-northeast,3.6,No
2023/07/25,08:10,0.149,0.138,0.216,0.206,0.210,0.118,0.078,north,2.6,No
2023/07/25,08:20,0.150,0.138,0.216,0.205,0.210,0.119,0.077,north-northeast,3.2,No
2023/07/25,08:30,0.149,0.136,0.216,0.206,0.212,0.119,0.077,north,3.6,No
2023/07/25,08:40,0.149,0.136,0.216,0.206,0.212,0.119,0.077,north-northeast,4.0,No
2023/07/25,08:50,0.149,0.136,0.216,0.205,0.212,0.119,0.077,north-northeast,3.2,No
2023/07/25,09:00,0.149,0.136,0.215,0.205,0.212,0.118,0.077,north,2.6,No
2023/07/25,09:10,0.149,0.136,0.215,0.206,0.212,0.118,0.077,north-northeast,2.5,No
2023/07/25,09:20,0.148,0.136,0.216,0.207,0.211,0.118,0.076,north-northeast,2.5,No
2023/07/25,09:30,0.148,0.137,0.216,0.207,0.211,0.119,0.077,north-northeast,2.6,No
2023/07/25,09:40,0.149,0.136,0.215,0.208,0.212,0.119,0.077,north-northeast,2.1,No
2023/07/25,09:50,0.147,0.137,0.216,0.206,0.212,0.119,0.076,northeast,1.8,No
2023/07/25,10:00,0.149,0.136,0.216,0.206,0.213,0.119,0.077,north-northeast,1.5,No
2023/07/25,10:10,0.149,0.138,0.216,0.207,0.212,0.119,0.077,north-northeast,1.0,No
2023/07/25,10:20,0.149,0.137,0.217,0.206,0.212,0.119,0.077,northeast,1.6,No
2023/07/25,10:30,0.149,0.137,0.217,0.207,0.212,0.118,0.077,northeast,1.5,No
2023/07/25,10:40,0.150,0.138,0.216,0.207,0.212,0.119,0.076,northeast,1.0,No
2023/07/25,10:50,0.149,0.138,0.218,0.207,0.213,0.119,0.077,east-northeast,1.8,No
2023/07/25,11:00,0.150,0.138,0.217,0.206,0.213,0.119,0.076,east-northeast,1.0,No
2023/07/25,11:10,0.150,0.138,0.216,0.207,0.212,0.119,0.076,-,CALM,No
2023/07/25,11:20,0.150,0.138,0.216,0.207,0.213,0.119,0.076,east-southeast,1.3,No
2023/07/25,11:30,0.149,0.137,0.217,0.207,0.214,0.119,0.076,east-southeast,2.4,No
2023/07/25,11:40,0.149,0.138,0.217,0.207,0.213,0.118,0.076,southeast,1.6,No
2023/07/25,11:50,0.149,0.139,0.217,0.208,0.213,0.120,0.076,south-southeast,1.8,No
2023/07/25,12:00,0.149,0.138,0.217,0.209,0.213,0.119,0.076,south,1.8,No
2023/07/25,12:10,0.149,0.138,0.217,0.207,0.214,0.118,0.077,south-southeast,2.3,No
2023/07/25,12:20,0.150,0.138,0.217,0.208,0.214,0.118,0.077,south,2.3,No
2023/07/25,12:30,0.150,0.138,0.217,0.208,0.214,0.119,0.077,south,1.8,No
2023/07/25,12:40,0.149,0.139,0.218,0.209,0.213,0.119,0.076,south,2.0,No
2023/07/25,12:50,0.149,0.139,0.218,0.208,0.213,0.119,0.077,south,2.2,No
2023/07/25,13:00,0.151,0.137,0.218,0.209,0.212,0.119,0.077,south-southeast,2.4,No
2023/07/25,13:10,0.150,0.138,0.218,0.209,0.213,0.119,0.077,south-southeast,2.5,No
2023/07/25,13:20,0.149,0.138,0.217,0.208,0.213,0.119,0.076,south-southeast,2.7,No
2023/07/25,13:30,0.150,0.138,0.217,0.209,0.214,0.119,0.077,south-southeast,3.2,No
2023/07/25,13:40,0.150,0.138,0.217,0.210,0.212,0.119,0.076,south-southeast,2.9,No
2023/07/25,13:50,0.149,0.138,0.217,0.208,0.213,0.119,0.077,south,2.5,No
2023/07/25,14:00,0.149,0.138,0.216,0.208,0.212,0.119,0.076,south,2.0,No
2023/07/25,14:10,0.149,0.138,0.217,0.209,0.211,0.120,0.077,south-southwest,1.7,No
2023/07/25,14:20,0.149,0.138,0.217,0.209,0.212,0.120,0.077,south,1.7,No
2023/07/25,14:30,0.149,0.138,0.217,0.208,0.211,0.120,0.077,south,1.5,No
2023/07/25,14:40,0.151,0.139,0.217,0.209,0.211,0.119,0.077,south-southwest,1.6,No
2023/07/25,14:50,0.150,0.139,0.217,0.208,0.212,0.119,0.076,south-southwest,1.6,No
2023/07/25,15:00,0.150,0.138,0.217,0.208,0.212,0.120,0.077,south,1.4,No
2023/07/25,15:10,0.150,0.138,0.217,0.208,0.211,0.119,0.077,south,1.3,No
2023/07/25,15:20,0.151,0.137,0.216,0.207,0.211,0.118,0.076,south-southeast,1.4,No
2023/07/25,15:30,0.150,0.138,0.216,0.207,0.210,0.119,0.076,south-southeast,1.5,No
2023/07/25,15:40,0.149,0.137,0.215,0.207,0.210,0.119,0.076,south-southeast,1.3,No
2023/07/25,15:50,0.149,0.137,0.215,0.207,0.209,0.118,0.076,-,CALM,No
2023/07/25,16:00,0.149,0.136,0.215,0.206,0.210,0.119,0.076,southeast,1.4,No
2023/07/25,16:10,0.148,0.136,0.215,0.208,0.212,0.119,0.076,south-southeast,2.1,No
2023/07/25,16:20,0.148,0.137,0.216,0.206,0.211,0.118,0.075,south,2.8,No
2023/07/25,16:30,0.149,0.136,0.216,0.206,0.211,0.119,0.076,south,2.8,No
2023/07/25,16:40,0.148,0.136,0.217,0.206,0.212,0.119,0.076,south,2.9,No
2023/07/25,16:50,0.148,0.136,0.216,0.206,0.212,0.118,0.076,south,2.8,No
2023/07/25,17:00,0.148,0.137,0.217,0.205,0.212,0.118,0.075,south,3.2,No
2023/07/25,17:10,0.147,0.136,0.216,0.206,0.212,0.118,0.076,south,2.3,No
2023/07/25,17:20,0.148,0.136,0.216,0.206,0.211,0.117,0.075,south,2.3,No
2023/07/25,17:30,0.148,0.137,0.215,0.205,0.211,0.118,0.075,south-southeast,2.5,No
2023/07/25,17:40,0.149,0.136,0.215,0.206,0.211,0.118,0.075,south,3.4,No
2023/07/25,17:50,0.148,0.137,0.216,0.206,0.210,0.118,0.075,south-southeast,4.1,No
2023/07/25,18:00,0.148,0.136,0.215,0.206,0.210,0.118,0.075,south,5.0,No
2023/07/25,18:10,0.148,0.136,0.215,0.206,0.210,0.118,0.075,south,5.0,No
2023/07/25,18:20,0.148,0.136,0.215,0.205,0.210,0.118,0.077,south,5.1,No
2023/07/25,18:30,0.148,0.136,0.216,0.204,0.210,0.119,0.076,south,3.2,No
2023/07/25,18:40,0.148,0.134,0.215,0.207,0.209,0.119,0.076,south,4.3,No
2023/07/25,18:50,0.147,0.137,0.216,0.209,0.210,0.119,0.076,south,3.5,No
2023/07/25,19:00,0.149,0.137,0.219,0.208,0.210,0.118,0.076,south-southwest,3.0,No
2023/07/25,19:10,0.150,0.138,0.219,0.206,0.209,0.118,0.076,south,3.0,No
2023/07/25,19:20,0.149,0.137,0.216,0.205,0.211,0.119,0.077,south,2.7,No
2023/07/25,19:30,0.149,0.137,0.216,0.207,0.214,0.119,0.077,south-southwest,3.7,No
2023/07/25,19:40,0.148,0.137,0.216,0.209,0.213,0.118,0.076,south,3.6,No
2023/07/25,19:50,0.150,0.137,0.219,0.207,0.212,0.118,0.075,south,4.3,No
2023/07/25,20:00,0.150,0.137,0.218,0.206,0.211,0.120,0.077,south,4.1,No
2023/07/25,20:10,0.149,0.136,0.217,0.207,0.211,0.120,0.076,south,3.8,No
2023/07/25,20:20,0.149,0.138,0.216,0.210,0.214,0.118,0.076,south,3.8,No
2023/07/25,20:30,0.150,0.137,0.220,0.208,0.213,0.118,0.076,south,3.7,No
2023/07/25,20:40,0.150,0.137,0.219,0.207,0.210,0.120,0.076,south,3.3,No
2023/07/25,20:50,0.149,0.137,0.218,0.207,0.211,0.119,0.077,south-southwest,2.8,No
2023/07/25,21:00,0.148,0.138,0.216,0.210,0.213,0.118,0.077,south-southwest,2.7,No
2023/07/25,21:10,0.150,0.138,0.219,0.208,0.214,0.119,0.076,south-southwest,1.9,No
2023/07/25,21:20,0.151,0.137,0.219,0.207,0.213,0.119,0.077,southwest,1.7,No
2023/07/25,21:30,0.150,0.137,0.216,0.207,0.212,0.119,0.077,southwest,1.1,No
2023/07/25,21:40,0.148,0.139,0.218,0.211,0.212,0.119,0.077,west-southwest,0.8,No
2023/07/25,21:50,0.151,0.137,0.220,0.208,0.214,0.120,0.077,west,1.2,No
2023/07/25,22:00,0.152,0.138,0.219,0.206,0.214,0.119,0.077,west-southwest,1.5,No
2023/07/25,22:10,0.149,0.139,0.217,0.209,0.212,0.118,0.077,west,0.9,No
2023/07/25,22:20,0.149,0.139,0.220,0.209,0.212,0.120,0.077,north,1.7,No
2023/07/25,22:30,0.150,0.137,0.221,0.208,0.216,0.119,0.077,north-northwest,2.5,No
2023/07/25,22:40,0.151,0.138,0.218,0.208,0.215,0.120,0.078,north,3.3,No
2023/07/25,22:50,0.150,0.139,0.217,0.211,0.213,0.119,0.078,north-northwest,3.6,No
2023/07/25,23:00,0.149,0.139,0.221,0.210,0.212,0.121,0.077,north-northwest,3.8,No
2023/07/25,23:10,0.151,0.138,0.218,0.208,0.216,0.120,0.079,north-northwest,3.8,No
2023/07/25,23:20,0.151,0.139,0.218,0.210,0.216,0.119,0.078,north-northwest,3.0,No
2023/07/25,23:30,0.150,0.139,0.219,0.209,0.212,0.120,0.078,north-northwest,2.1,No
2023/07/25,23:40,0.151,0.137,0.221,0.208,0.212,0.121,0.078,north-northwest,1.9,No
2023/07/25,23:50,0.152,0.139,0.218,0.208,0.216,0.119,0.078,north-northwest,1.4,No
